Starlink 34655

operational
NORAD ID: 65027 Int'l Des: 2025-161 Owner: SPXS Country: US Constellation: starlink
LEOCIRCULAR

关于 Starlink 34655

正在加载描述...

实时位置

正在加载3D地球...

即将过境

高度历史

Altitude vs Time

uPlot chart will show altitude changes over time

两行轨道根数

1 65027U 25161N 25340.93442618 .00060689 00000-0 20436-2 0 9992
2 65027 53.1603 5.3930 0001972 93.0736 267.0491 15.30213433 21127
Epoch: Dec 6, 2025 • Age: 18 hours

当前状态

高度 490.9 km
速度 7.62 km/s
星下点 -44.30°S, 98.94°W
发射日期 Jul 30, 2025
运行时间 0.3 years
类型 internet

技术详情

分类 Payload
质量 575.00 kg
干质量 530.00 kg
总质量 575.00 kg
长度 0.30 m
直径 4.10 m
跨度 29.00 m
形状 Box + pan
制造商 SPXS
平台类型 Starlink V2MO
阶段状态 In Orbit
所有者/国家 SPXS/US

大型星座

Loading constellations...